Flag for Switzerland Weather past 2 weeks in Baar, Zug, Switzerland

Now
33 °F

Chilly.


Feels Like: 33 °F
Forecast: 25 / 43 °F
Wind: 1 mph from Northwest

Location: Zurich Town / Ville.

Current Time: Mar 5, 2015 at 9:20:49 AM

Latest Report: Mar 5, 2015 at 8:00 AM


Visibility: N/A

Pressure: 30.59 "Hg

Humidity: 79%

Dew point: 28 °F

Location of BaarLocation

Historic Weather in Baar — Graph

°F

Baar temperature yesterday

Maximum temperature yesterday: 45 °F (at 12:00 AM)
Minimum temperature yesterday: 33 °F (at 9:00 PM)
Average temperature yesterday: 38 °F

Past Weeks' High & Low Weather Summary

 TemperatureHumidityPressure
High50 °F (Feb 20, 4:00 PM)100% (Feb 21, 10:00 PM)30.75 "Hg (Feb 21, 10:00 PM)
Low28 °F (Feb 23, 5:00 AM)35% (Feb 20, 4:00 PM)29.58 "Hg (Feb 21, 12:00 PM)
Average36 °F79%30.08 "Hg
* Reported Feb 18 8:00 AM — Mar 5 8:00 AM, Baar, Weather by CustomWeather, © 2015

Note: Actual official high and low records may vary slightly from our data, if they occured in-between our weather recording intervals... More about our weather records

Advertising

Baar weather history for previous 24 hours

 ConditionsComfort  
Time TempWeatherWind HumidityBarometerVisibility
8:00 AM
Thu, Mar 5
33 °FChilly.1 mph79%30.59 "HgN/A
7:00 AM33 °FChilly.3 mph81%30.58 "HgN/A
6:00 AM33 °FChilly.1 mph86%30.58 "HgN/A
5:00 AM32 °FChilly.1 mph91%30.57 "HgN/A
3:00 AM33 °FChilly.1 mph95%30.56 "HgN/A
2:00 AM33 °FChilly.1 mph92%30.55 "HgN/A
1:00 AM33 °FChilly.1 mph91%30.54 "HgN/A
12:00 AM33 °FChilly.1 mph92%30.53 "HgN/A
11:00 PM
Wed, Mar 4
33 °FChilly.No wind91%30.52 "HgN/A
9:00 PM33 °FChilly.1 mph91%30.48 "HgN/A
8:00 PM33 °FChilly.2 mph90%30.46 "HgN/A
7:00 PM35 °FChilly.2 mph80%30.43 "HgN/A
6:00 PM38 °FChilly.2 mph66%30.40 "HgN/A
5:00 PM39 °FChilly.5 mph62%30.37 "HgN/A
4:00 PM39 °FChilly.7 mph61%30.35 "HgN/A
3:00 PM42 °FQuite cool.8 mph60%30.33 "HgN/A
2:00 PM40 °FChilly.3 mph75%30.36 "HgN/A
1:00 PM38 °FOvercast.6 mph72%30.38 "HgN/A
12:00 PM38 °FChilly.5 mph73%30.37 "HgN/A
11:00 AM37 °FChilly.3 mph87%30.38 "HgN/A
10:00 AM36 °FChilly.5 mph91%30.38 "HgN/A
9:00 AM36 °FChilly.3 mph93%30.36 "HgN/A
Weather by CustomWeather, © 2015

See weather overviewHow to use our weather pages